Weather History for KTOL - August, 2014

Change the Weather History Date:

Sunday, August 31, 2014

  Actual Average Record
Temperature  
Mean Temperature 78 °F 70 °F  
Max Temperature 85 °F 81 °F 101 °F (1951)
Min Temperature 71 °F 59 °F 44 °F (1967)
Degree Days  
Heating Degree Days 0 1  
Month to date heating degree days 5 7  
Since 1 June heating degree days 30 49  
Since 1 July heating degree days 14 14  
Cooling Degree Days 13 5  
Month to date cooling degree days 208 214  
Year to date cooling degree days 598 702  
Since 1 June cooling degree days 536 649  
Growing Degree Days 28 (Base 50)    
Moisture  
Dew Point 68 °F    
Average Humidity 74    
Maximum Humidity 93    
Minimum Humidity 55    
Precipitation  
Precipitation 0.00 in 0.10 in 0.92 in (1981)
Month to date precipitation 2.53 3.15  
Year to date precipitation 21.19 23.32  
Snow  
Snow 0.00 in 0.00 in - ()
Month to date snowfall 0.0 0.0  
Since 1 June snowfall 0.0 0.0  
Since 1 July snowfall 0.0 0.0  
Snow Depth 0.00 in    
Sea Level Pressure  
Sea Level Pressure 29.95 in    
Wind  
Wind Speed 7 mph (SW)    
Max Wind Speed 15 mph    
Max Gust Speed 20 mph    
Visibility 10 miles    
Events      
T = Trace of Precipitation, MM = Missing Value Source: NWS Daily Summary

Daily Weather History Graph

Daily Weather History Graph

Search for Another Location

Airport or City:

Trip Planner

Search our weather history database for the weather conditions in past years. The results will help you decide how hot, cold, wet, or windy it might be!

Date:

Astronomy

Aug. 31, 2014 Rise Set
Actual Time 7:00 AM EDT 8:10 PM EDT
Civil Twilight 6:31 AM EDT 8:38 PM EDT
Nautical Twilight 5:57 AM EDT 9:12 PM EDT
Astronomical Twilight 5:21 AM EDT 9:48 PM EDT
Moon 12:50 PM EDT (8/31) 11:19 PM EDT (8/31)
Length of Visible Light 14h 06m
Length of Day
13h 09m
Waxing Crescent, 32% of the Moon is Illuminated
Aug 31
Waxing Crescent
Sep 2
First Quarter
Sep 8
Full
Sep 15
Last Quarter
Sep 24
New

Hourly Weather History & Observations

Time (EDT) Temp. Heat Index Dew Point Humidity Pressure Visibility Wind Dir Wind Speed Gust Speed Precip Events Conditions
12:52 AM 75.0 °F - 69.1 °F 82% 29.94 in 8.0 mi SW 11.5 mph 20.7 mph N/A   Clear
1:52 AM 73.9 °F - 69.1 °F 85% 29.95 in 9.0 mi SW 9.2 mph - N/A   Partly Cloudy
2:14 AM 73.4 °F - 68.0 °F 83% 29.96 in 9.0 mi SW 5.8 mph - N/A   Mostly Cloudy
2:30 AM 73.4 °F - 68.0 °F 83% 29.96 in 9.0 mi SW 10.4 mph - N/A   Mostly Cloudy
2:52 AM 73.9 °F - 68.0 °F 82% 29.95 in 9.0 mi SW 9.2 mph - N/A   Mostly Cloudy
3:52 AM 73.0 °F - 68.0 °F 84% 29.94 in 9.0 mi SW 8.1 mph - N/A   Mostly Cloudy
4:35 AM 73.4 °F - 68.0 °F 83% 29.94 in 9.0 mi SW 6.9 mph - N/A   Overcast
4:52 AM 73.0 °F - 68.0 °F 84% 29.93 in 9.0 mi SSW 9.2 mph - N/A   Overcast
5:30 AM 71.6 °F - 68.0 °F 88% 29.94 in 10.0 mi SSW 9.2 mph - N/A   Overcast
5:52 AM 72.0 °F - 68.0 °F 87% 29.93 in 10.0 mi SSW 6.9 mph - N/A   Overcast
6:52 AM 72.0 °F - 66.9 °F 84% 29.94 in 10.0 mi SW 8.1 mph - N/A   Mostly Cloudy
7:52 AM 71.1 °F - 66.9 °F 87% 29.96 in 10.0 mi SW 8.1 mph - N/A   Mostly Cloudy
8:52 AM 72.0 °F - 66.9 °F 84% 29.97 in 10.0 mi WSW 6.9 mph - N/A   Partly Cloudy
9:52 AM 73.9 °F - 66.9 °F 79% 29.97 in 10.0 mi WSW 10.4 mph - N/A   Mostly Cloudy
10:52 AM 75.0 °F - 66.9 °F 76% 29.98 in 10.0 mi WSW 9.2 mph - N/A   Overcast
11:52 AM 78.1 °F - 66.9 °F 68% 29.97 in 10.0 mi West 9.2 mph - N/A   Mostly Cloudy
12:52 PM 78.1 °F - 66.9 °F 68% 29.97 in 10.0 mi WSW 9.2 mph - N/A   Overcast
1:15 PM 80.6 °F 82.7 °F 66.2 °F 61% 29.98 in 10.0 mi WSW 8.1 mph - N/A   Overcast
1:52 PM 79.0 °F - 66.9 °F 66% 29.96 in 10.0 mi WSW 8.1 mph - N/A   Overcast
2:52 PM 82.9 °F 85.4 °F 66.9 °F 58% 29.95 in 10.0 mi SW 10.4 mph - N/A   Partly Cloudy
3:52 PM 84.9 °F 87.6 °F 66.9 °F 55% 29.93 in 10.0 mi WSW 8.1 mph - N/A   Scattered Clouds
4:52 PM 82.9 °F 85.4 °F 66.9 °F 58% 29.92 in 10.0 mi SW 11.5 mph - N/A   Scattered Clouds
5:52 PM 82.9 °F 85.8 °F 68.0 °F 60% 29.93 in 10.0 mi WSW 9.2 mph - N/A   Clear
6:52 PM 82.0 °F 84.9 °F 68.0 °F 62% 29.91 in 10.0 mi SW 6.9 mph - N/A   Clear
7:52 PM 78.1 °F - 70.0 °F 76% 29.92 in 10.0 mi Calm Calm - N/A   Clear
8:52 PM 73.0 °F - 69.1 °F 87% 29.93 in 10.0 mi South 3.5 mph - N/A   Clear
9:52 PM 73.4 °F - 69.8 °F 88% 29.95 in 10.0 mi SSW 4.6 mph - N/A   Clear
10:52 PM 73.0 °F - 69.1 °F 87% 29.93 in 10.0 mi South 3.5 mph - N/A   Clear
11:52 PM 71.1 °F - 69.1 °F 93% 29.92 in 7.0 mi South 3.5 mph - N/A   Clear